Location: Breezy Point Observatory
(38.9725°N, 81.7133°W)
Time: 13:59:51
(UTC-04:00)

HST - Visible Passes

Search period start: 21 August 2014 00:00
Search period end: 31 August 2014 00:00
Orbit: 547 x 551 km, 28.5° (Epoch: 20 August)

Date Brightness Start Highest point End Pass type
(mag) Time Alt. Az. Time Alt. Az. Time Alt. Az.
21 Aug 2.8 06:02:39 10° SSW 06:05:20 17° S 06:08:01 10° SE visible
22 Aug 2.7 05:55:31 10° SW 05:58:18 18° S 06:01:11 10° SE visible
23 Aug 2.6 05:49:00 13° SW 05:51:17 19° S 05:54:16 10° SE visible
24 Aug 2.5 05:42:30 15° SSW 05:44:16 19° S 05:47:18 10° SE visible
25 Aug 2.4 05:36:02 17° SSW 05:37:15 19° S 05:40:16 10° SE visible
26 Aug 2.4 05:29:38 18° SSW 05:30:13 19° S 05:33:10 10° SE visible
27 Aug 2.6 05:23:18 17° S 05:23:18 17° S 05:25:59 10° SE visible
28 Aug 2.8 05:17:03 15° S 05:17:03 15° S 05:18:42 10° SSE visible
29 Aug 3.2 05:10:53 11° SSE 05:10:53 11° SSE 05:11:17 10° SSE visible
